EW3451 Weather Reports


time (UTC)temp
F
wind
direction
speed
knots
gust
knots
rain 1hr
in
rain 24hr
in
rain mn
in
humidity
%
barometer
mb
20260502183403 46 196 3.5 8.7 0.00 0.00 0.00 60 1014.0
20260502182331 46 272 5.2 14.8 0.00 0.00 0.00 59 1014.0
20260502181905 46 1 4.3 14.8 0.00 0.00 0.00 60 1014.0
20260502181358 47 18 3.5 8.7 0.00 0.00 0.00 60 1013.9
20260502180851 47 13 3.5 7.8 0.00 0.00 0.00 59 1014.0
20260502180328 47 1 4.3 8.7 0.00 0.00 0.00 60 1014.1
20260502170340 47 316 5.2 9.6 0.00 0.00 0.00 60 1014.4
20260502163829 45 25 6.1 12.2 0.00 0.00 0.00 59 1014.4
20260502163403 46 6 7.8 12.2 0.00 0.00 0.00 57 1014.4
20260502162854 46 258 3.5 10.4 0.00 0.00 0.00 59 1014.5
20260502162348 46 1 5.2 11.3 0.00 0.00 0.00 60 1014.5
20260502161840 46 355 4.3 11.3 0.00 0.00 0.00 60 1014.6
20260502160405 47 3 3.5 5.2 0.00 0.00 0.00 58 1014.7
20260502151851 46 18 5.2 13.9 0.00 0.00 0.00 58 1014.6
20260502151328 46 355 4.3 9.6 0.00 0.00 0.00 60 1014.6
20260502150901 46 2 2.6 9.6 0.00 0.00 0.00 60 1014.7
20260502130404 39 353 2.6 6.1 0.00 0.00 0.00 81 1014.8
20260502123328 38 359 2.6 4.3 0.00 0.00 0.00 83 1014.6
20260502122900 38 13 1.7 4.3 0.00 0.00 0.00 84 1014.5
20260502122353 38 6 2.6 5.2 0.00 0.00 0.00 85 1014.5
20260502121829 37 343 2.6 5.2 0.00 0.00 0.00 85 1014.6
20260502121404 37 1 0.9 4.3 0.00 0.00 0.00 86 1014.6
20260502120331 37 23 1.7 3.5 0.00 0.00 0.00 88 1014.5
20260502115903 36 352 0.9 4.3 0.00 0.00 0.00 89 1014.4
20260502114831 36 356 1.7 3.5 0.00 0.00 0.00 90 1014.5
20260502114405 36 336 0.9 3.5 0.00 0.00 0.00 91 1014.5
20260502113857 36 1 0.0 0.0 0.00 0.00 0.00 92 1014.5
20260502113335 35 1 0.0 0.0 0.00 0.00 0.00 93 1014.4
20260502112826 35 2 0.0 1.7 0.00 0.00 0.00 93 1014.5
20260502112400 34 15 0.9 1.7 0.00 0.00 0.00 93 1014.4
20260502111328 34 15 0.0 0.0 0.00 0.00 0.00 92 1014.4
20260502110901 34 15 0.0 0.0 0.00 0.00 0.00 92 1014.4
20260502110354 34 15 0.0 0.0 0.00 0.00 0.00 92 1014.2
20260502105403 34 15 0.0 0.0 0.00 0.00 0.00 91 1014.2
20260502104356 34 15 0.0 2.6 0.00 0.00 0.00 91 1014.0
20260502103848 34 15 0.9 2.6 0.00 0.00 0.00 91 1014.0
20260502103342 35 15 0.9 2.6 0.00 0.00 0.00 91 1014.1
20260502102831 35 345 0.9 2.6 0.00 0.00 0.00 90 1014.2
20260502102405 35 345 1.7 2.6 0.00 0.00 0.00 90 1014.3
20260502101858 35 345 0.9 1.7 0.00 0.00 0.00 90 1014.4
20260502101335 35 345 0.0 0.9 0.00 0.00 0.00 90 1014.4
20260502100343 35 356 1.7 3.5 0.00 0.00 0.00 90 1014.2
20260502091400 36 4 1.7 3.5 0.00 0.00 0.00 85 1014.6
20260502090853 36 359 1.7 4.3 0.00 0.00 0.00 85 1014.5
20260502070843 39 13 2.6 7.0 0.00 0.00 0.00 77 1014.3
20260502065852 40 359 2.6 4.3 0.00 0.00 0.00 76 1014.4
20260502064819 40 4 0.0 2.6 0.00 0.00 0.00 76 1014.5
20260502063848 40 15 0.9 3.5 0.00 0.00 0.00 76 1014.5
20260502063341 40 1 0.9 2.6 0.00 0.00 0.00 76 1014.5
20260502062815 40 359 1.7 4.3 0.00 0.00 0.00 75 1014.5
20260502062348 40 6 2.6 3.5 0.00 0.00 0.00 75 1014.7
20260502061837 40 1 1.7 3.5 0.00 0.00 0.00 75 1014.8
20260502061330 40 351 1.7 3.5 0.00 0.00 0.00 75 1014.9
20260502060823 40 305 0.9 6.1 0.00 0.00 0.00 76 1014.9
20260502060316 40 354 0.9 6.1 0.00 0.00 0.00 75 1014.8
20260502055828 40 23 1.7 6.1 0.00 0.00 0.00 75 1014.8
20260502055321 41 297 1.7 8.7 0.00 0.00 0.00 75 1014.8
20260502054818 41 360 2.6 7.0 0.00 0.00 0.00 74 1014.7
20260502054331 41 1 2.6 7.0 0.00 0.00 0.00 74 1014.6
20260502053823 41 356 2.6 7.0 0.00 0.00 0.00 75 1014.7
20260502053316 41 360 2.6 6.1 0.00 0.00 0.00 78 1014.8
20260502052830 41 20 1.7 6.1 0.00 0.00 0.00 78 1014.9
20260502052322 41 349 2.6 6.1 0.00 0.00 0.00 76 1014.8
20260502051815 41 27 3.5 10.4 0.00 0.00 0.00 76 1014.9
20260502051327 41 347 2.6 10.4 0.00 0.00 0.00 76 1014.8
20260502050824 42 354 1.7 8.7 0.00 0.00 0.00 78 1014.8
20260502045832 42 11 2.6 7.0 0.00 0.00 0.00 82 1014.9
20260502045325 42 23 2.6 9.6 0.00 0.00 0.00 81 1015.0
20260502044312 42 1 2.6 7.8 0.00 0.00 0.00 83 1015.0
20260502042814 43 352 2.6 7.0 0.00 0.00 0.00 84 1014.9
20260502042327 43 332 3.5 7.0 0.00 0.00 0.00 84 1014.9
20260502041824 43 2 2.6 7.0 0.00 0.00 0.00 84 1014.9
20260502040812 43 357 3.5 9.6 0.00 0.00 0.00 83 1014.8
20260502040325 43 25 3.5 9.6 0.00 0.00 0.00 83 1014.8
20260502035838 43 359 1.7 7.8 0.00 0.00 0.00 84 1014.8
20260502035430 44 31 3.5 7.8 0.00 0.00 0.00 83 1014.9
20260502034839 44 359 1.7 3.5 0.00 0.00 0.00 83 1014.9
20260502034331 44 3 0.9 6.1 0.00 0.00 0.00 84 1014.8
20260502033905 44 360 2.6 6.1 0.00 0.00 0.00 83 1014.8
20260502033358 44 15 2.6 7.0 0.00 0.00 0.00 82 1014.9
20260502032835 44 20 3.5 7.0 0.00 0.00 0.00 82 1014.9
20260502032328 44 13 2.6 5.2 0.00 0.00 0.00 81 1015.0
20260502031822 44 2 2.6 5.2 0.00 0.00 0.00 82 1015.0
20260502031314 44 1 1.7 4.3 0.00 0.00 0.00 81 1015.0
20260502030342 44 12 2.6 8.7 0.00 0.00 0.00 81 1015.0
20260502025835 44 15 3.5 5.2 0.00 0.00 0.00 80 1015.0
20260502025327 44 106 1.7 6.1 0.00 0.00 0.00 81 1015.0
20260502024901 44 1 3.5 8.7 0.00 0.00 0.00 80 1015.1
20260502024338 44 276 1.7 8.7 0.00 0.00 0.00 79 1014.9
20260502023831 44 10 2.6 7.0 0.00 0.00 0.00 79 1014.6
20260502022838 44 1 2.6 8.7 0.00 0.00 0.00 79 1014.5
20260502022330 44 354 4.3 10.4 0.00 0.00 0.00 78 1014.4
20260502020812 45 14 3.5 9.6 0.00 0.00 0.00 79 1014.5
20260502020406 45 15 3.5 11.3 0.00 0.00 0.00 79 1014.4
20260502015842 45 337 5.2 11.3 0.00 0.00 0.00 78 1014.3
20260502014852 45 2 6.1 17.4 0.00 0.00 0.00 78 1013.8
20260502014345 46 333 5.2 17.4 0.00 0.00 0.00 78 1013.8
20260502013838 46 31 6.1 14.8 0.00 0.00 0.00 79 1013.7
20260502013332 46 360 3.5 7.0 0.00 0.00 0.00 80 1013.6
20260502012823 47 1 3.5 7.0 0.00 0.00 0.00 80 1013.5
20260502011835 47 60 3.5 9.6 0.00 0.00 0.00 80 1013.5
20260502010844 47 353 4.3 7.0 0.00 0.00 0.00 81 1013.3
20260502010338 47 32 2.6 6.1 0.00 0.00 0.00 81 1013.3
20260502005830 47 351 2.6 7.0 0.00 0.00 0.00 81 1013.2
20260502005404 47 360 3.5 7.8 0.00 0.00 0.00 81 1013.3
20260502004857 47 360 4.3 8.7 0.00 0.00 0.00 81 1013.2
20260502004350 47 11 3.5 11.3 0.00 0.00 0.00 81 1013.0
20260502003827 47 3 5.2 11.3 0.00 0.00 0.00 81 1013.0
20260502002832 48 11 4.3 13.9 0.00 0.00 0.00 80 1012.9
20260502002357 48 360 3.5 13.9 0.00 0.00 0.00 80 1012.8
20260502001835 48 39 4.3 13.9 0.00 0.00 0.00 80 1012.7
20260502001329 48 4 5.2 11.3 0.00 0.00 0.00 79 1012.6
20260502000336 48 5 2.6 7.0 0.00 0.00 0.00 78 1012.2
20260501235830 49 356 3.5 7.0 0.00 0.00 0.00 77 1012.1
20260501235403 49 359 3.5 7.0 0.00 0.00 0.00 76 1012.2
20260501234856 49 354 4.3 7.8 0.00 0.00 0.00 75 1012.1
20260501234333 50 27 3.5 10.4 0.00 0.00 0.00 75 1011.8
20260501233328 50 44 4.3 13.9 0.00 0.00 0.00 72 1011.7
20260501232901 51 336 6.1 13.9 0.00 0.00 0.00 69 1011.8
20260501232355 52 93 4.3 12.2 0.00 0.00 0.00 67 1011.6
20260501231404 55 352 6.1 17.4 0.00 0.00 0.00 59 1011.2
20260501230856 56 68 2.6 8.7 0.00 0.00 0.00 53 1010.9
20260501230334 57 359 3.5 14.8 0.00 0.00 0.00 52 1011.0
20260501225906 56 278 1.7 14.8 0.00 0.00 0.00 53 1011.2
20260501223844 58 248 2.6 9.6 0.00 0.00 0.00 46 1011.0
20260501223337 59 313 4.3 10.4 0.00 0.00 0.00 45 1011.1
20260501222827 59 271 2.6 8.7 0.00 0.00 0.00 46 1011.0
20260501222401 59 298 3.5 12.2 0.00 0.00 0.00 46 1010.9
20260501221854 59 289 6.1 12.2 0.00 0.00 0.00 45 1011.0
20260501221331 59 12 5.2 13.0 0.00 0.00 0.00 44 1011.0
20260501220824 59 319 6.1 14.8 0.00 0.00 0.00 43 1011.0
20260501215328 61 271 6.1 13.0 0.00 0.00 0.00 41 1010.9
20260501214820 61 209 7.0 12.2 0.00 0.00 0.00 40 1010.9
20260501214313 61 264 5.2 13.0 0.00 0.00 0.00 40 1011.0
20260501213907 61 267 5.2 12.2 0.00 0.00 0.00 41 1011.0
20260501213359 61 249 5.2 12.2 0.00 0.00 0.00 43 1011.0
20260501212352 60 230 3.5 10.4 0.00 0.00 0.00 44 1010.8
20260501211846 59 255 5.2 10.4 0.00 0.00 0.00 45 1011.0
20260501211338 59 276 6.1 14.8 0.00 0.00 0.00 42 1011.3
20260501210832 61 280 7.0 14.8 0.00 0.00 0.00 39 1011.1
20260501205856 62 6 4.3 13.9 0.00 0.00 0.00 42 1011.1
20260501205349 61 345 3.5 10.4 0.00 0.00 0.00 43 1011.1
20260501204842 60 285 5.2 21.7 0.00 0.00 0.00 41 1011.3
20260501204319 61 269 7.0 21.7 0.00 0.00 0.00 38 1011.2
20260501203853 61 155 4.3 16.5 0.00 0.00 0.00 39 1011.0
20260501203345 62 324 6.1 16.5 0.00 0.00 0.00 38 1011.1
20260501202837 62 290 8.7 16.5 0.00 0.00 0.00 38 1011.2
20260501202328 62 236 7.8 16.5 0.00 0.00 0.00 37 1010.9
20260501201902 61 301 6.1 16.5 0.00 0.00 0.00 38 1011.1
20260501201355 62 293 10.4 16.5 0.00 0.00 0.00 39 1011.3
20260501200402 62 252 8.7 15.6 0.00 0.00 0.00 35 1011.1
20260501195840 62 267 5.2 19.1 0.00 0.00 0.00 38 1011.3
20260501194846 63 228 5.2 14.8 0.00 0.00 0.00 39 1011.3
20260501194340 63 259 7.0 14.8 0.00 0.00 0.00 37 1011.3
20260501193831 63 228 4.3 19.1 0.00 0.00 0.00 37 1011.3
20260501193405 63 359 6.1 19.1 0.00 0.00 0.00 34 1011.2
20260501192858 63 249 5.2 11.3 0.00 0.00 0.00 35 1011.3
20260501191903 63 263 7.0 15.6 0.00 0.00 0.00 36 1011.4
20260501191339 63 183 7.0 15.6 0.00 0.00 0.00 35 1011.7
20260501190832 63 353 5.2 11.3 0.00 0.00 0.00 35 1011.6
20260501190405 62 218 5.2 11.3 0.00 0.00 0.00 37 1011.7
20260501185858 62 234 6.1 13.9 0.00 0.00 0.00 34 1011.7
20260501185352 63 269 7.0 13.9 0.00 0.00 0.00 41 1011.8
20260501184844 63 227 4.3 12.2 0.00 0.00 0.00 39 1011.8
20260501183840 61 2 4.3 14.8 0.00 0.00 0.00 40 1011.7